Location: Unspecified
(54.1780°N, 0.0000°E)
Time: 14:47:02
(UTC+00:00)

Altair - Pass Details

Date: 27 June 2019
Orbit: 1501 x 1683 km, 47.2° (Epoch: 20 July)

Event Time Altitude Azimuth Distance (km) Brightness Sun altitude
Rises 16:24:57 0° 178° (S) 4,656 10.1 33.0°
Reaches altitude 10° 16:29:47 10° 157° (SSE) 3,707 9.4 32.3°
Maximum altitude 16:34:19 15° 127° (SE) 3,381 9.0 31.6°
Drops below altitude 10° 16:38:56 10° 97° (E) 3,782 9.1 30.9°
Sets 16:43:55 0° 76° (ENE) 4,811 9.6 30.2°
